Date String (YYYY-MM-DD hh:mm:ss) UTC,Instrument flags,absolute air pressure of the measurement (hPa),sample flow rate (lpm),inlet stack bypass flow (lpm),air temperature of the measurement (°C),ambient temperature measured by the external sensor (°C),aerosol sample conditioner tube jacket temperature (°C),OPC LED temperature (°C),internal box temperature (°C),relative humidity of the measurement (%),span deviation,mass concentration of particles derived from Lorenz-Mie calculation of OPC scattering (μg/m³),mass concentration of particles derived from Lorenz-Mie calculation of OPC scattering (μg/m³),mass concentration of particles derived from Lorenz-Mie calculation of OPC scattering (μg/m³)
DateTimeUTC,F1_M11,P_M11,Q1_M11,Q2_M11,T1_M11,T2_M11,T3_M11,T4_M11,T5_M11,U1_M11,ZSPAN_M11,X0_M11,X2_M11,X1_M11
2023-12-17 09:00:00,SystemResetWarning,0830.7,4.99,000.00,024.1,023.0,000.0,032.4,025.5,6.9,0000.0,0000.36,0000.29,0000.26
2023-12-17 09:01:00,SystemResetWarning,0830.8,5.01,000.00,024.1,023.0,000.0,032.4,025.5,6.9,0000.0,0000.35,0000.28,0000.26
2023-12-17 09:02:00,SystemResetWarning,0830.7,5.01,000.00,024.1,023.0,000.0,032.4,025.5,7.0,0000.0,0001.73,0000.28,0000.26
2023-12-17 09:03:00,SystemResetWarning,0830.7,4.99,000.00,024.1,023.0,000.0,032.4,025.4,7.1,0000.0,0002.16,0000.29,0000.27
2023-12-17 09:04:00,SystemResetWarning,0830.6,4.99,000.00,024.1,023.0,000.0,032.4,025.4,6.9,0000.0,0002.15,0000.28,0000.26
2023-12-17 09:05:00,SystemResetWarning,0830.6,4.99,000.00,024.1,022.9,000.0,032.4,025.3,6.9,0000.0,0002.15,0000.29,0000.27
2023-12-17 09:06:00,SystemResetWarning,0830.6,5.01,000.00,024.0,022.9,000.0,032.4,025.2,6.9,0000.0,0002.17,0000.29,0000.27
2023-12-17 09:07:00,SystemResetWarning,0830.5,5.01,000.00,024.0,022.8,000.0,032.4,025.2,6.9,0000.0,0002.19,0000.30,0000.26
2023-12-17 09:08:00,SystemResetWarning,0830.5,5.01,000.00,024.0,022.8,000.0,032.4,025.2,6.7,0000.0,0002.19,0000.30,0000.26
2023-12-17 09:09:00,SystemResetWarning,0830.4,4.99,000.00,024.0,022.8,000.0,032.4,025.1,6.5,0000.0,0002.21,0000.32,0000.27
2023-12-17 09:10:00,SystemResetWarning,0830.4,4.98,000.00,024.0,022.8,000.0,032.4,025.1,6.4,0000.0,0002.21,0000.32,0000.27
2023-12-17 09:11:00,SystemResetWarning,0830.5,5.00,000.00,023.9,022.7,000.0,032.3,025.1,6.6,0000.0,0002.24,0000.33,0000.27
2023-12-17 09:12:00,SystemResetWarning,0830.4,5.01,000.00,023.9,022.7,000.0,032.3,025.0,6.7,0000.0,0002.25,0000.33,0000.27
2023-12-17 09:13:00,SystemResetWarning,0830.4,5.01,000.00,023.9,022.7,000.0,032.3,025.1,6.6,0000.0,0000.99,0000.34,0000.28
2023-12-17 09:14:00,SystemResetWarning,0830.4,4.99,000.00,023.9,022.6,000.0,032.3,025.0,6.7,0000.0,0000.50,0000.35,0000.28
2023-12-17 09:15:00,SystemResetWarning,0830.4,4.99,000.00,023.9,022.6,000.0,032.3,025.0,6.8,0000.0,0000.51,0000.35,0000.28
2023-12-17 09:16:00,SystemResetWarning,0830.3,5.02,000.00,023.8,022.5,000.0,032.3,025.0,6.7,0000.0,0000.55,0000.37,0000.28
2023-12-17 09:17:00,SystemResetWarning,0830.3,4.99,000.00,023.8,022.5,000.0,032.3,025.0,6.8,0000.0,0000.56,0000.37,0000.28
2023-12-17 09:18:00,SystemResetWarning,0830.3,4.98,000.00,023.8,022.5,000.0,032.2,024.9,6.7,0000.0,0000.63,0000.37,0000.29
2023-12-17 09:19:00,SystemResetWarning,0830.2,5.00,000.00,023.8,022.5,000.0,032.2,024.9,6.6,0000.0,0000.68,0000.38,0000.29
2023-12-17 09:20:00,SystemResetWarning,0830.3,5.01,000.00,023.8,022.5,000.0,032.2,025.0,6.5,0000.0,0000.65,0000.36,0000.29
2023-12-17 09:21:00,SystemResetWarning,0830.2,5.00,000.00,023.8,022.4,000.0,032.2,024.9,6.7,0000.0,0000.65,0000.35,0000.28
2023-12-17 09:22:00,SystemResetWarning,0830.1,5.01,000.00,023.8,022.4,000.0,032.2,024.9,6.7,0000.0,0000.61,0000.34,0000.28
2023-12-17 09:23:00,SystemResetWarning,0830.2,4.99,000.00,023.7,022.4,000.0,032.1,024.9,6.6,0000.0,0000.62,0000.34,0000.28
2023-12-17 09:24:00,SystemResetWarning,0830.2,4.99,000.00,023.7,022.4,000.0,032.1,024.9,6.7,0000.0,0000.65,0000.35,0000.28
2023-12-17 09:25:00,SystemResetWarning,0830.2,5.00,000.00,023.7,022.3,000.0,032.1,024.9,6.9,0000.0,0000.71,0000.36,0000.27
2023-12-17 09:26:00,SystemResetWarning,0830.1,5.00,000.00,023.7,022.3,000.0,032.1,024.9,6.8,0000.0,0000.79,0000.37,0000.27
2023-12-17 09:27:00,SystemResetWarning,0830.1,5.00,000.00,023.7,022.3,000.0,032.1,024.9,6.7,0000.0,0000.76,0000.36,0000.27
2023-12-17 09:28:00,SystemResetWarning,0830.2,5.01,000.00,023.7,022.3,000.0,032.0,024.9,6.7,0000.0,0000.79,0000.37,0000.27
2023-12-17 09:29:00,SystemResetWarning,0830.1,4.99,000.00,023.7,022.2,000.0,032.0,024.8,6.7,0000.0,0000.80,0000.40,0000.27
2023-12-17 09:30:00,SystemResetWarning,0830.1,4.99,000.00,023.6,022.2,000.0,032.0,024.8,6.8,0000.0,0000.76,0000.40,0000.28
2023-12-17 09:31:00,SystemResetWarning,0830.2,5.00,000.00,023.6,022.2,000.0,032.0,024.7,7.0,0000.0,0000.78,0000.41,0000.28
2023-12-17 09:32:00,SystemResetWarning,0830.2,5.00,000.00,023.6,022.2,000.0,032.0,024.7,6.7,0000.0,0000.82,0000.42,0000.28
2023-12-17 09:33:00,SystemResetWarning,0830.2,5.00,000.00,023.6,022.2,000.0,031.9,024.7,6.7,0000.0,0000.87,0000.45,0000.29
2023-12-17 09:34:00,SystemResetWarning,0830.2,5.01,000.00,023.6,022.1,000.0,031.9,024.7,6.6,0000.0,0000.89,0000.46,0000.29
2023-12-17 09:35:00,SystemResetWarning,0830.2,5.00,000.00,023.5,022.1,000.0,031.9,024.7,6.7,0000.0,0000.87,0000.46,0000.29
2023-12-17 09:36:00,SystemResetWarning,0830.2,4.99,000.00,023.5,022.1,000.0,031.9,024.7,6.7,0000.0,0000.83,0000.46,0000.30
2023-12-17 09:37:00,SystemResetWarning,0830.1,4.98,000.00,023.5,022.1,000.0,031.9,024.7,6.8,0000.0,0000.73,0000.44,0000.30
2023-12-17 09:38:00,SystemResetWarning,0830.1,5.00,000.00,023.5,022.1,000.0,031.9,024.7,6.7,0000.0,0000.74,0000.45,0000.31
2023-12-17 09:39:00,SystemResetWarning,0830.1,5.00,000.00,023.5,022.1,000.0,031.8,024.6,6.7,0000.0,0000.75,0000.46,0000.31
2023-12-17 09:40:00,SystemResetWarning,0830.2,5.00,000.00,023.5,022.1,000.0,031.8,024.6,6.7,0000.0,0000.68,0000.43,0000.31
2023-12-17 09:41:00,SystemResetWarning,0830.2,5.00,000.00,023.4,022.0,000.0,031.8,024.6,6.6,0000.0,0000.68,0000.42,0000.30
2023-12-17 09:42:00,SystemResetWarning,0830.1,5.00,000.00,023.4,022.0,000.0,031.8,024.5,6.8,0000.0,0000.70,0000.43,0000.30
2023-12-17 09:43:00,SystemResetWarning,0830.0,5.00,000.00,023.4,022.0,000.0,031.8,024.5,6.7,0000.0,0000.76,0000.45,0000.30
2023-12-17 09:44:00,SystemResetWarning,0830.1,5.00,000.00,023.4,022.0,000.0,031.8,024.5,6.5,0000.0,0000.73,0000.43,0000.30
2023-12-17 09:45:00,SystemResetWarning,0830.1,5.00,000.00,023.3,022.0,000.0,031.8,024.5,6.5,0000.0,0000.71,0000.42,0000.30
2023-12-17 09:46:00,SystemResetWarning,0830.0,5.00,000.00,023.3,022.0,000.0,031.7,024.5,6.5,0000.0,0000.72,0000.43,0000.31
2023-12-17 09:47:00,SystemResetWarning,0830.0,5.00,000.00,023.3,022.0,000.0,031.7,024.4,6.6,0000.0,0000.70,0000.42,0000.31
2023-12-17 09:48:00,SystemResetWarning,0829.9,5.00,000.00,023.3,022.0,000.0,031.7,024.5,6.7,0000.0,0000.70,0000.42,0000.31
2023-12-17 09:49:00,SystemResetWarning,0830.0,5.00,000.00,023.3,022.0,000.0,031.7,024.5,6.7,0000.0,0000.68,0000.40,0000.30
2023-12-17 09:50:00,SystemResetWarning,0829.9,5.00,000.00,023.3,022.0,000.0,031.7,024.4,6.9,0000.0,0000.68,0000.40,0000.30
2023-12-17 09:51:00,SystemResetWarning,0829.9,5.00,000.00,023.2,022.0,000.0,031.7,024.4,6.8,0000.0,0000.69,0000.41,0000.30
2023-12-17 09:52:00,SystemResetWarning,0830.0,5.00,000.00,023.2,021.9,000.0,031.6,024.4,6.7,0000.0,0000.65,0000.40,0000.30
2023-12-17 09:53:00,SystemResetWarning,0829.8,5.00,000.00,023.2,021.9,000.0,031.6,024.4,6.9,0000.0,0001.45,0000.42,0000.31
2023-12-17 09:54:00,SystemResetWarning,0829.8,5.00,000.00,023.2,021.9,000.0,031.6,024.3,6.8,0000.0,0001.60,0000.44,0000.31
2023-12-17 09:55:00,SystemResetWarning,0829.7,5.00,000.00,023.2,021.9,000.0,031.6,024.3,6.8,0000.0,0001.64,0000.45,0000.32
2023-12-17 09:56:00,SystemResetWarning,0829.8,4.99,000.00,023.1,021.9,000.0,031.6,024.3,6.8,0000.0,0001.70,0000.46,0000.32
2023-12-17 09:57:00,SystemResetWarning,0829.8,5.01,000.00,023.1,021.9,000.0,031.6,024.2,7.0,0000.0,0001.75,0000.47,0000.32
2023-12-17 09:58:00,SystemResetWarning,0829.8,5.01,000.00,023.1,021.8,000.0,031.5,024.2,6.9,0000.0,0001.77,0000.47,0000.32
2023-12-17 09:59:00,SystemResetWarning,0829.8,5.00,000.00,023.1,021.8,000.0,031.5,024.2,7.0,0000.0,0002.54,0000.48,0000.31
